Total_Precipitation_Accumulation
1.50 1.42 1.26 1.23 1.26 1.27 1.34 1.39 1.30 1.15 1.14 1.04 0.72 0.54 0.53 0.56 0.61 0.49 0.44 0.41 0.40 0.37 0.30 0.31 0.33 0.39 0.48 0.59 0.73 0.85 0.92 0.95 0.96 0.92 0.92 0.98 1.00 1.04
1.30 1.30 1.24 1.21 1.24 1.23 1.27 1.36 1.43 1.40 1.27 1.11 0.92 0.68 0.66 0.59 0.61 0.55 0.48 0.41 0.36 0.32 0.26 0.24 0.27 0.32 0.39 0.46 0.55 0.65 0.72 0.75 0.79 0.86 0.88 0.87 0.86 0.89
1.03 1.03 1.05 1.11 1.18 1.19 1.20 1.22 1.39 1.55 1.44 1.37 1.23 1.07 0.93 0.80 0.65 0.59 0.50 0.42 0.37 0.32 0.25 0.22 0.24 0.27 0.32 0.40 0.47 0.55 0.62 0.68 0.72 0.78 0.84 0.86 0.86 0.86
0.93 1.00 1.02 1.10 1.15 1.09 1.15 1.21 1.37 1.55 1.61 1.71 1.75 1.49 1.17 0.95 0.85 0.71 0.48 0.37 0.37 0.33 0.27 0.24 0.22 0.23 0.26 0.32 0.40 0.52 0.61 0.66 0.70 0.75 0.78 0.80 0.84 0.88
0.93 1.01 1.00 1.00 1.00 0.99 1.07 1.17 1.30 1.43 1.55 1.60 1.71 1.52 1.31 1.05 1.02 0.83 0.64 0.56 0.39 0.34 0.28 0.25 0.25 0.26 0.26 0.30 0.37 0.46 0.56 0.65 0.68 0.77 0.84 0.83 0.87 0.92
0.86 0.86 0.82 0.82 0.85 0.86 0.89 1.02 1.13 1.22 1.31 1.34 1.43 1.44 1.43 1.37 1.31 1.11 0.96 0.81 0.64 0.46 0.42 0.29 0.27 0.26 0.27 0.28 0.33 0.42 0.53 0.65 0.70 0.75 0.82 0.88 0.94 0.98
0.79 0.72 0.61 0.63 0.68 0.67 0.69 0.84 0.94 1.02 1.12 1.19 1.30 1.40 1.46 1.49 1.39 1.31 1.17 1.07 0.89 0.80 0.83 0.65 0.53 0.42 0.36 0.34 0.35 0.38 0.45 0.59 0.70 0.79 0.85 0.88 0.95 1.05
0.65 0.65 0.57 0.51 0.49 0.52 0.52 0.58 0.66 0.75 0.91 1.09 1.24 1.40 1.42 1.35 1.42 1.39 1.34 1.25 1.18 1.09 1.08 1.14 1.07 0.94 0.74 0.54 0.50 0.43 0.39 0.47 0.61 0.72 0.84 0.93 0.98 1.04
0.51 0.54 0.48 0.44 0.41 0.37 0.43 0.51 0.52 0.54 0.59 0.82 1.03 1.09 1.06 0.98 1.16 1.34 1.30 1.26 1.31 1.24 1.22 1.34 1.33 1.21 0.95 0.78 0.66 0.51 0.44 0.41 0.48 0.59 0.67 0.79 0.91 1.00
0.44 0.44 0.44 0.46 0.41 0.38 0.38 0.44 0.43 0.41 0.41 0.45 0.52 0.59 0.66 0.72 0.87 1.13 1.32 1.28 1.32 1.31 1.28 1.48 1.47 1.39 1.17 0.94 0.76 0.56 0.48 0.47 0.50 0.56 0.61 0.66 0.73 0.84
0.40 0.40 0.39 0.41 0.43 0.39 0.36 0.39 0.39 0.40 0.37 0.36 0.36 0.42 0.49 0.53 0.60 0.74 0.94 1.22 1.51 1.56 1.35 1.45 1.51 1.52 1.57 1.29 0.97 0.76 0.59 0.52 0.49 0.51 0.54 0.57 0.60 0.65
0.51 0.48 0.39 0.35 0.35 0.29 0.29 0.33 0.33 0.33 0.31 0.33 0.34 0.35 0.38 0.43 0.43 0.50 0.58 0.80 1.10 1.33 1.29 1.34 1.54 1.76 1.94 1.68 1.24 0.90 0.74 0.69 0.60 0.51 0.49 0.51 0.51 0.49
0.55 0.53 0.47 0.38 0.28 0.25 0.24 0.25 0.29 0.28 0.30 0.34 0.36 0.37 0.38 0.38 0.37 0.37 0.43 0.49 0.59 0.69 0.77 0.94 1.16 1.41 1.74 1.85 1.69 1.36 1.07 0.87 0.73 0.64 0.59 0.57 0.58 0.57
0.62 0.58 0.48 0.38 0.32 0.29 0.25 0.24 0.25 0.24 0.27 0.33 0.37 0.38 0.38 0.37 0.38 0.38 0.40 0.44 0.49 0.51 0.54 0.64 0.81 1.01 1.16 1.29 1.41 1.50 1.49 1.33 1.10 0.92 0.79 0.78 0.74 0.76
0.56 0.61 0.53 0.36 0.31 0.33 0.34 0.28 0.22 0.22 0.26 0.28 0.33 0.36 0.34 0.33 0.35 0.41 0.44 0.44 0.45 0.45 0.40 0.45 0.57 0.69 0.78 0.94 1.07 1.16 1.26 1.30 1.26 1.19 1.16 1.05 0.93 0.87
0.49 0.52 0.55 0.48 0.36 0.37 0.41 0.34 0.26 0.26 0.28 0.27 0.29 0.34 0.35 0.35 0.36 0.37 0.39 0.43 0.46 0.48 0.42 0.40 0.46 0.52 0.57 0.66 0.74 0.85 0.96 1.10 1.23 1.29 1.30 1.28 1.18 1.12
0.54 0.59 0.59 0.60 0.50 0.44 0.46 0.42 0.37 0.36 0.34 0.33 0.32 0.34 0.38 0.39 0.38 0.36 0.35 0.34 0.40 0.44 0.41 0.37 0.37 0.42 0.41 0.41 0.52 0.63 0.70 0.79 0.94 1.12 1.26 1.35 1.26 1.18
0.56 0.64 0.69 0.69 0.63 0.59 0.56 0.52 0.51 0.46 0.40 0.39 0.37 0.34 0.35 0.37 0.36 0.35 0.33 0.30 0.30 0.33 0.34 0.31 0.29 0.35 0.43 0.40 0.32 0.37 0.45 0.56 0.64 0.74 0.91 1.11 1.15 1.08
0.59 0.64 0.72 0.73 0.71 0.70 0.63 0.56 0.58 0.52 0.48 0.46 0.43 0.41 0.38 0.38 0.35 0.33 0.33 0.32 0.30 0.28 0.28 0.27 0.24 0.26 0.34 0.41 0.34 0.22 0.27 0.36 0.42 0.48 0.58 0.74 0.91 0.90
0.63 0.68 0.75 0.73 0.72 0.71 0.68 0.63 0.62 0.54 0.50 0.48 0.44 0.41 0.39 0.39 0.38 0.34 0.29 0.27 0.28 0.28 0.30 0.29 0.25 0.21 0.24 0.29 0.30 0.25 0.15 0.22 0.32 0.38 0.41 0.46 0.53 0.60
0.64 0.67 0.69 0.70 0.72 0.69 0.64 0.61 0.62 0.54 0.47 0.43 0.40 0.38 0.37 0.38 0.40 0.37 0.33 0.31 0.26 0.25 0.27 0.31 0.29 0.23 0.23 0.30 0.34 0.33 0.23 0.15 0.17 0.23 0.28 0.35 0.41 0.44
0.58 0.60 0.59 0.60 0.61 0.60 0.56 0.55 0.58 0.55 0.48 0.43 0.39 0.37 0.35 0.34 0.37 0.37 0.32 0.30 0.27 0.25 0.25 0.26 0.25 0.25 0.25 0.29 0.32 0.31 0.29 0.24 0.16 0.12 0.14 0.20 0.25 0.30
0.49 0.52 0.52 0.51 0.49 0.50 0.49 0.47 0.51 0.50 0.42 0.37 0.35 0.34 0.31 0.30 0.31 0.30 0.28 0.25 0.25 0.26 0.25 0.25 0.25 0.26 0.28 0.32 0.36 0.35 0.30 0.27 0.25 0.23 0.18 0.12 0.12 0.12